| time (UTC) | temp C | wind direction | speed KPH | gust KPH | rain 1hr cm | rain 24hr cm | rain mn cm | humidity % | barometer mb |
| 20260504001522 | 10 | 242 | 8.0 | 24.1 | 0.00 | 0.00 | 0.00 | 69 | 1009.2 |
| 20260504000037 | 9 | 210 | 8.0 | 25.7 | 0.00 | 0.00 | 0.00 | 70 | 1009.3 |
| 20260503234518 | 9 | 229 | 9.7 | 22.5 | 0.00 | 0.00 | 0.00 | 71 | 1009.4 |
| 20260503233020 | 9 | 269 | 8.0 | 17.7 | 0.00 | 0.00 | 0.00 | 73 | 1009.6 |
| 20260503231516 | 9 | 221 | 6.4 | 17.7 | 0.00 | 0.00 | 0.00 | 73 | 1009.5 |
| 20260503230016 | 9 | 236 | 4.8 | 19.3 | 0.00 | 0.00 | 0.00 | 73 | 1009.7 |
| 20260503224514 | 10 | 236 | 6.4 | 19.3 | 0.00 | 0.00 | 0.00 | 72 | 1009.9 |
| 20260503223015 | 10 | 246 | 8.0 | 20.9 | 0.00 | 0.00 | 0.00 | 73 | 1010.0 |
| 20260503221513 | 9 | 243 | 12.9 | 27.4 | 0.00 | 0.00 | 0.00 | 73 | 1010.1 |
| 20260503220019 | 9 | 238 | 11.3 | 29.0 | 0.00 | 0.00 | 0.00 | 73 | 1010.1 |
| 20260503214522 | 9 | 200 | 9.7 | 32.2 | 0.00 | 0.00 | 0.00 | 72 | 1010.2 |
| 20260503213011 | 10 | 196 | 12.9 | 37.0 | 0.00 | 0.00 | 0.00 | 70 | 1009.8 |
| 20260503211512 | 10 | 232 | 17.7 | 38.6 | 0.00 | 0.00 | 0.00 | 69 | 1009.6 |
| 20260503210024 | 10 | 218 | 12.9 | 37.0 | 0.00 | 0.00 | 0.00 | 69 | 1009.7 |
| 20260503204510 | 10 | 253 | 11.3 | 32.2 | 0.00 | 0.00 | 0.00 | 69 | 1009.9 |
| 20260503203008 | 10 | 200 | 8.0 | 29.0 | 0.00 | 0.00 | 0.00 | 70 | 1009.8 |
| 20260503201503 | 10 | 248 | 11.3 | 27.4 | 0.00 | 0.00 | 0.00 | 68 | 1010.2 |
| 20260503200002 | 10 | 207 | 6.4 | 27.4 | 0.00 | 0.00 | 0.00 | 66 | 1010.2 |
| 20260503194501 | 11 | 241 | 9.7 | 22.5 | 0.00 | 0.00 | 0.00 | 65 | 1010.5 |
| 20260503193100 | 11 | 253 | 11.3 | 32.2 | 0.00 | 0.00 | 0.00 | 63 | 1010.7 |
| 20260503191603 | 11 | 223 | 11.3 | 35.4 | 0.00 | 0.00 | 0.00 | 62 | 1011.0 |
| 20260503184557 | 11 | 213 | 12.9 | 40.2 | 0.00 | 0.00 | 0.00 | 60 | 1011.4 |
| 20260503183104 | 11 | 274 | 12.9 | 30.6 | 0.00 | 0.00 | 0.00 | 59 | 1011.5 |
| 20260503181552 | 11 | 254 | 11.3 | 40.2 | 0.00 | 0.00 | 0.00 | 55 | 1011.7 |
| 20260503174547 | 11 | 222 | 11.3 | 25.7 | 0.00 | 0.00 | 0.00 | 56 | 1012.0 |
| 20260503173124 | 11 | 217 | 11.3 | 25.7 | 0.00 | 0.00 | 0.00 | 57 | 1012.4 |
| 20260503171546 | 10 | 225 | 11.3 | 25.7 | 0.00 | 0.00 | 0.00 | 58 | 1012.7 |
| 20260503130113 | 7 | 227 | 8.0 | 29.0 | 0.00 | 0.00 | 0.00 | 80 | 1014.1 |
| 20260503081505 | -1 | 211 | 0.0 | 0.0 | 0.00 | 0.00 | 0.00 | 92 | 1014.5 |
| 20260503071602 | -1 | 211 | 0.0 | 1.6 | 0.00 | 0.00 | 0.00 | 92 | 1014.5 |
| 20260503054552 | 0 | 198 | 0.0 | 0.0 | 0.00 | 0.00 | 0.00 | 90 | 1014.8 |
| 20260503053050 | 0 | 198 | 0.0 | 0.0 | 0.00 | 0.00 | 0.00 | 89 | 1014.7 |
| 20260503051547 | 0 | 198 | 0.0 | 0.0 | 0.00 | 0.00 | 0.00 | 89 | 1014.9 |
| 20260503050045 | 0 | 198 | 0.0 | 1.6 | 0.00 | 0.00 | 0.00 | 88 | 1015.0 |
| 20260503044544 | 0 | 198 | 0.0 | 1.6 | 0.00 | 0.00 | 0.00 | 87 | 1015.0 |
| 20260503043039 | 1 | 198 | 0.0 | 0.0 | 0.00 | 0.00 | 0.00 | 86 | 1015.2 |
| 20260503041540 | 1 | 198 | 0.0 | 0.0 | 0.00 | 0.00 | 0.00 | 85 | 1015.2 |
| 20260503040033 | 1 | 198 | 0.0 | 0.0 | 0.00 | 0.00 | 0.00 | 84 | 1015.2 |
| 20260503034535 | 2 | 198 | 0.0 | 0.0 | 0.00 | 0.00 | 0.00 | 84 | 1015.2 |
| 20260503033032 | 2 | 198 | 0.0 | 0.0 | 0.00 | 0.00 | 0.00 | 83 | 1015.3 |
| 20260503031534 | 3 | 198 | 0.0 | 0.0 | 0.00 | 0.00 | 0.00 | 84 | 1015.4 |
| 20260503030033 | 3 | 198 | 0.0 | 0.0 | 0.00 | 0.00 | 0.00 | 85 | 1015.3 |
| 20260503024531 | 3 | 198 | 0.0 | 0.0 | 0.00 | 0.00 | 0.00 | 84 | 1015.4 |
| 20260503023033 | 4 | 198 | 0.0 | 0.0 | 0.00 | 0.00 | 0.00 | 84 | 1015.6 |
| 20260503021529 | 4 | 198 | 0.0 | 0.0 | 0.00 | 0.00 | 0.00 | 82 | 1015.6 |
| 20260503020028 | 4 | 198 | 0.0 | 0.0 | 0.00 | 0.00 | 0.00 | 81 | 1015.6 |
| 20260503014526 | 4 | 198 | 0.0 | 0.0 | 0.00 | 0.00 | 0.00 | 80 | 1015.7 |
| 20260503013034 | 5 | 198 | 0.0 | 1.6 | 0.00 | 0.00 | 0.00 | 79 | 1015.7 |
| 20260503011529 | 5 | 198 | 0.0 | 1.6 | 0.00 | 0.00 | 0.00 | 78 | 1015.7 |
| 20260503010024 | 5 | 198 | 0.0 | 4.8 | 0.00 | 0.00 | 0.00 | 78 | 1015.6 |
| 20260503004523 | 5 | 244 | 1.6 | 4.8 | 0.00 | 0.00 | 0.00 | 77 | 1015.5 |
| 20260503003023 | 5 | 247 | 0.0 | 6.4 | 0.00 | 0.00 | 0.00 | 76 | 1015.4 |